DW4174 Weather Reports


Display with metric or nautical units.
time (UTC)temp
F
wind
direction
speed
MPH
gust
MPH
rain 1hr
in
rain 24hr
in
rain mn
in
humidity
%
barometer
mb
20260502170254 87 94 7.0 14.0 0.00 0.00 0.00 25 1013.0
20260502163555 86 127 6.0 14.0 0.00 0.00 0.00 26 1013.0
20260502162654 85 119 7.0 14.0 0.00 0.00 0.00 27 1013.0
20260502161754 84 118 7.0 14.0 0.00 0.00 0.00 27 1012.9
20260502150554 80 106 3.0 7.0 0.00 0.00 0.00 28 1012.5
20260502120554 65 90 0.0 2.0 0.00 0.00 0.00 38 1010.3
20260502115654 65 90 1.0 2.0 0.00 0.00 0.00 39 1010.3
20260502113854 65 90 1.0 2.0 0.00 0.00 0.00 39 1010.3
20260502112954 66 90 0.0 2.0 0.00 0.00 0.00 38 1010.2
20260502111154 66 90 1.0 3.0 0.00 0.00 0.00 37 1010.1
20260502110254 66 90 0.0 2.0 0.00 0.00 0.00 37 1010.1
20260502105354 66 90 1.0 1.0 0.00 0.00 0.00 37 1010.1
20260502103554 67 90 0.0 2.0 0.00 0.00 0.00 36 1010.0
20260502102654 68 90 1.0 2.0 0.00 0.00 0.00 35 1009.9
20260502101754 68 90 0.0 2.0 0.00 0.00 0.00 34 1009.7
20260502100854 68 90 1.0 1.0 0.00 0.00 0.00 34 1009.8
20260502090554 74 90 4.0 7.0 0.00 0.00 0.00 27 1009.4
20260502065953 73 152 1.0 2.0 0.00 0.00 0.00 30 1009.1
20260502065054 74 153 1.0 4.0 0.00 0.00 0.00 30 1009.1
20260502064154 74 0 0.0 0.0 0.00 0.00 0.00 29 1009.1
20260502063253 74 0 0.0 0.0 0.00 0.00 0.00 29 1009.0
20260502062353 75 0 0.0 0.0 0.00 0.00 0.00 29 1009.0
20260502061453 75 201 0.0 2.0 0.00 0.00 0.00 28 1008.8
20260502060553 74 201 0.0 2.0 0.00 0.00 0.00 29 1008.7
20260502053853 74 0 0.0 0.0 0.00 0.00 0.00 27 1008.5
20260502052953 74 0 0.0 0.0 0.00 0.00 0.00 26 1008.5
20260502052053 75 201 1.0 2.0 0.00 0.00 0.00 26 1008.5
20260502051153 76 230 0.0 2.0 0.00 0.00 0.00 25 1008.5
20260502050253 75 246 0.0 2.0 0.00 0.00 0.00 26 1008.5
20260502044453 76 246 0.0 2.0 0.00 0.00 0.00 25 1008.4
20260502043553 76 0 0.0 0.0 0.00 0.00 0.00 25 1008.3
20260502042653 76 0 0.0 0.0 0.00 0.00 0.00 25 1008.2
20260502041753 76 0 0.0 0.0 0.00 0.00 0.00 25 1008.1
20260502040853 77 246 1.0 2.0 0.00 0.00 0.00 24 1008.0
20260502035953 77 248 0.0 3.0 0.00 0.00 0.00 24 1007.9
20260502035053 78 0 0.0 0.0 0.00 0.00 0.00 24 1007.8
20260502034153 78 0 0.0 0.0 0.00 0.00 0.00 24 1007.8
20260502032353 79 0 0.0 0.0 0.00 0.00 0.00 23 1007.6
20260502031453 80 0 0.0 0.0 0.00 0.00 0.00 22 1007.5
20260502030553 80 250 0.0 2.0 0.00 0.00 0.00 22 1007.3
20260502025656 81 250 0.0 1.0 0.00 0.00 0.00 21 1007.2
20260502024753 82 250 0.0 2.0 0.00 0.00 0.00 21 1007.1
20260502023853 82 249 1.0 2.0 0.00 0.00 0.00 21 1007.0
20260502022953 83 253 2.0 4.0 0.00 0.00 0.00 19 1007.0
20260502022053 84 252 4.0 6.0 0.00 0.00 0.00 19 1006.9
20260502021153 84 255 3.0 7.0 0.00 0.00 0.00 19 1006.8
20260502020253 85 241 3.0 6.0 0.00 0.00 0.00 19 1006.8
20260502015353 86 241 4.0 10.0 0.00 0.00 0.00 19 1006.7
20260502014453 86 253 4.0 9.0 0.00 0.00 0.00 19 1006.7